User: anonymous   Login
Location: Kielce
(50.8833°N, 20.6167°E)
Time: 14:21:35
(UTC+02:00)
Language:

S-56A Canister/Altair - Orbit

View from above orbital plane
View from above orbital plane
View from above satellite
View from above satellite

Ground track
Ground track

The orbit data is extracted from the following two-line orbital elements,

1 00082U 61004B   21107.79066284 -.00000110  00000-0 -41897-4 0  9991
2 00082  38.8536 151.4612 1175538 112.4222 260.5095 12.26040076845168
Epoch (UTC): 17 April 2021 18:58:33
Eccentricity: 0.1175538
inclination: 38.8536°
perigee height: 632 km
apogee height: 2500 km
right ascension of ascending node: 151.4612°
argument of perigee: 112.4222°
revolutions per day: 12.26040076
mean anomaly at epoch: 260.5095°
orbit number at epoch: 84516

The dashed part of the orbit path shows where the satellite is in the earth's shadow,  

DLR